﻿_id,日時,平均風速(m/s),平均風向,最大瞬間風速(m/s),最大風速時風向,気温(℃),湿度(%),10分間移動積算雨量(mm),1時間移動積算雨量(mm),日雨量(mm),累計雨量(mm)
1,2022-08-22T00:00:00,0.9,北北西,1.6,北東,23.8,95.8,0,0,3.5,19
2,2022-08-22T00:01:00,1,北北西,1.6,北東,23.8,95.8,0,0,0,19
3,2022-08-22T00:02:00,0.9,北北西,1.6,北東,23.8,95.8,0,0,0,19
4,2022-08-22T00:03:00,0.9,北北西,1.6,北北西,23.8,95.9,0,0,0,19
5,2022-08-22T00:04:00,1,北北西,1.6,北北西,23.8,96,0,0,0,19
6,2022-08-22T00:05:00,1,北北西,1.6,北北西,23.8,96.1,0,0,0,19
7,2022-08-22T00:06:00,0.9,北北西,1.6,北北西,23.8,96.2,0,0,0,19
8,2022-08-22T00:07:00,0.9,北北西,1.6,北北西,23.7,96.2,0,0,0,19
9,2022-08-22T00:08:00,0.9,北北西,1.6,北北西,23.7,96.2,0,0,0,19
10,2022-08-22T00:09:00,0.9,北北西,1.6,北北西,23.7,96.3,0,0,0,19
11,2022-08-22T00:10:00,0.8,北北西,1.6,北北西,23.7,96.3,0,0,0,19
12,2022-08-22T00:11:00,0.7,北北西,1.4,北北西,23.7,96.4,0,0,0,19
13,2022-08-22T00:12:00,0.7,北北西,1.4,北北西,23.8,96.5,0,0,0,19
14,2022-08-22T00:13:00,0.6,北北西,1.1,北北西,23.8,96.5,0,0,0,19
15,2022-08-22T00:14:00,0.5,北北西,1,北北西,23.7,96.5,0,0,0,19
16,2022-08-22T00:15:00,0.5,北北西,1.1,北北東,23.7,96.5,0,0,0,19
17,2022-08-22T00:16:00,0.5,北北西,1.1,北北東,23.8,96.6,0,0,0,19
18,2022-08-22T00:17:00,0.5,北北西,1.1,北北東,23.9,96.8,0,0,0,19
19,2022-08-22T00:18:00,0.5,北,1.1,北北東,24,96.8,0,0,0,19
20,2022-08-22T00:19:00,0.5,北,1.1,北北東,24,96.7,0,0,0,19
21,2022-08-22T00:20:00,0.5,北,1.1,北北東,24,96.4,0,0,0,19
22,2022-08-22T00:21:00,0.5,北北東,1.1,北北東,24,96.3,0,0,0,19
23,2022-08-22T00:22:00,0.4,北東,1.1,北北東,24,96.2,0,0,0,19
24,2022-08-22T00:23:00,0.4,北東,1.1,北北東,24,96.1,0,0,0,19
25,2022-08-22T00:24:00,0.4,北東,1.1,北北東,23.9,96,0,0,0,19
26,2022-08-22T00:25:00,0.5,北北東,1.1,北西,23.8,95.9,0,0,0,19
27,2022-08-22T00:26:00,0.5,北,1.1,北西,23.8,95.9,0,0,0,19
28,2022-08-22T00:27:00,0.5,北北西,1.1,北西,23.7,96,0,0,0,19
29,2022-08-22T00:28:00,0.5,北西,1.1,北西,23.7,96.1,0,0,0,19
30,2022-08-22T00:29:00,0.4,北西,1.1,北西,23.7,96.2,0,0,0,19
31,2022-08-22T00:30:00,0.4,西北西,1.1,北西,23.8,96.3,0,0,0,19
32,2022-08-22T00:31:00,0.4,北西,1.1,北西,23.8,96.4,0,0,0,19
33,2022-08-22T00:32:00,0.5,北西,1.1,北西,23.7,96.3,0,0,0,19
34,2022-08-22T00:33:00,0.6,北西,1.3,北北西,23.7,96.3,0,0,0,19
35,2022-08-22T00:34:00,0.7,北西,1.4,北北西,23.7,96.3,0,0,0,19
36,2022-08-22T00:35:00,0.7,北西,1.4,北北西,23.7,96.4,0,0,0,19
37,2022-08-22T00:36:00,0.7,北西,1.4,北北西,23.7,96.5,0,0,0,19
38,2022-08-22T00:37:00,0.7,北西,1.4,北北西,23.7,96.6,0,0,0,19
39,2022-08-22T00:38:00,0.8,北西,1.4,北北西,23.7,96.7,0,0,0,19
40,2022-08-22T00:39:00,0.9,北北西,1.4,北北西,23.7,96.7,0,0,0,19
41,2022-08-22T00:40:00,1,北北西,1.4,北北西,23.6,96.7,0,0,0,19
42,2022-08-22T00:41:00,1,北北西,1.4,北北西,23.7,96.7,0,0,0,19
43,2022-08-22T00:42:00,1,北北西,1.4,北北西,23.6,96.7,0,0,0,19
44,2022-08-22T00:43:00,1,北北西,1.4,北北西,23.6,96.7,0,0,0,19
45,2022-08-22T00:44:00,1,北北西,1.4,北北西,23.6,96.8,0,0,0,19
46,2022-08-22T00:45:00,1,北北西,1.4,北北西,23.6,96.8,0,0,0,19
47,2022-08-22T00:46:00,1,北北西,1.4,北北西,23.6,96.8,0,0,0,19
48,2022-08-22T00:47:00,1,北北西,1.4,北北西,23.5,96.8,0,0,0,19
49,2022-08-22T00:48:00,0.9,北北西,1.4,北北西,23.6,96.9,0,0,0,19
50,2022-08-22T00:49:00,0.9,北西,1.4,北北西,23.6,96.9,0,0,0,19
51,2022-08-22T00:50:00,0.9,北西,1.4,北北西,23.6,96.9,0,0,0,19
52,2022-08-22T00:51:00,0.8,北西,1.4,北北西,23.6,97,0,0,0,19
53,2022-08-22T00:52:00,0.8,北西,1.4,北北西,23.6,97,0,0,0,19
54,2022-08-22T00:53:00,0.7,北西,1.3,北北西,23.6,97,0,0,0,19
55,2022-08-22T00:54:00,0.7,北北西,1.3,北北西,23.7,97.1,0,0,0,19
56,2022-08-22T00:55:00,0.7,北北西,1.6,北北東,23.7,97,0,0,0,19
57,2022-08-22T00:56:00,0.6,北北西,1.6,北北東,23.8,97,0,0,0,19
58,2022-08-22T00:57:00,0.7,北北西,1.7,北北西,23.7,96.8,0,0,0,19
59,2022-08-22T00:58:00,0.7,北北西,1.8,西,23.7,96.7,0,0,0,19
60,2022-08-22T00:59:00,0.8,北北西,1.8,西,23.7,96.6,0,0,0,19
61,2022-08-22T01:00:00,0.8,北北西,1.8,西,23.6,96.5,0,0,0,19
62,2022-08-22T01:01:00,0.9,北北西,1.8,西,23.6,96.5,0,0,0,19
63,2022-08-22T01:02:00,1,北北西,1.8,西,23.6,96.5,0,0,0,19
64,2022-08-22T01:03:00,1.1,北西,1.8,西,23.6,96.5,0,0,0,19
65,2022-08-22T01:04:00,1.1,北西,1.8,西,23.5,96.5,0,0,0,19
66,2022-08-22T01:05:00,1.1,北西,1.8,西,23.5,96.6,0,0,0,19
67,2022-08-22T01:06:00,1.1,北西,1.8,西,23.5,96.7,0,0,0,19
68,2022-08-22T01:07:00,1.1,北西,1.8,西,23.5,96.7,0,0,0,19
69,2022-08-22T01:08:00,1,北北西,1.6,北西,23.6,96.9,0,0,0,19
70,2022-08-22T01:09:00,1,北北西,1.6,北西,23.7,96.9,0,0,0,19
71,2022-08-22T01:10:00,1,北北西,1.6,北西,23.6,96.9,0,0,0,19
72,2022-08-22T01:11:00,1,北北西,1.6,北西,23.6,96.8,0,0,0,19
73,2022-08-22T01:12:00,1,北北西,1.6,北,23.6,96.7,0,0,0,19
74,2022-08-22T01:13:00,1,北,1.6,北,23.6,96.7,0,0,0,19
75,2022-08-22T01:14:00,1.1,北,1.6,北,23.6,96.8,0,0,0,19
76,2022-08-22T01:15:00,1,北,1.6,北,23.6,96.7,0,0,0,19
77,2022-08-22T01:16:00,1,北,1.6,北,23.6,96.7,0,0,0,19
78,2022-08-22T01:17:00,1,北,1.6,北,23.6,96.7,0,0,0,19
79,2022-08-22T01:18:00,1,北,1.6,北,23.6,96.6,0,0,0,19
80,2022-08-22T01:19:00,0.9,北,1.6,北,23.6,96.5,0,0,0,19
81,2022-08-22T01:20:00,0.9,北北西,1.6,北,23.5,96.5,0,0,0,19
82,2022-08-22T01:21:00,0.9,北北西,1.6,北,23.5,96.5,0,0,0,19
83,2022-08-22T01:22:00,0.8,北北西,1.6,北,23.5,96.5,0,0,0,19
84,2022-08-22T01:23:00,0.8,北北西,1.6,北,23.5,96.6,0,0,0,19
85,2022-08-22T01:24:00,0.8,北北西,1.1,北北西,23.5,96.6,0,0,0,19
86,2022-08-22T01:25:00,0.8,北北西,1.4,北,23.5,96.6,0,0,0,19
87,2022-08-22T01:26:00,0.8,北北西,1.4,北,23.6,96.7,0,0,0,19
88,2022-08-22T01:27:00,0.8,北北西,1.4,北,23.6,96.7,0,0,0,19
89,2022-08-22T01:28:00,0.8,北北西,1.4,北,23.7,96.8,0,0,0,19
90,2022-08-22T01:29:00,0.8,北北西,1.4,北,23.8,96.7,0,0,0,19
91,2022-08-22T01:30:00,0.8,北,1.4,北,23.8,96.4,0,0,0,19
92,2022-08-22T01:31:00,0.7,北,1.4,北,23.9,96.1,0,0,0,19
93,2022-08-22T01:32:00,0.6,北北東,1.4,北,23.9,96,0,0,0,19
94,2022-08-22T01:33:00,0.6,北北東,1.4,北,23.9,95.7,0,0,0,19
95,2022-08-22T01:34:00,0.5,北北東,1.4,北,23.9,95.5,0,0,0,19
96,2022-08-22T01:35:00,0.4,北北東,1.3,北,23.8,95.4,0,0,0,19
97,2022-08-22T01:36:00,0.3,北,1,北北東,23.8,95.4,0,0,0,19
98,2022-08-22T01:37:00,0.3,北,1,北北東,23.7,95.4,0,0,0,19
99,2022-08-22T01:38:00,0.3,北,0.7,北北東,23.8,95.5,0,0,0,19
100,2022-08-22T01:39:00,0.3,北,0.7,北北東,23.7,95.7,0,0,0,19
101,2022-08-22T01:40:00,0.2,静穏,0.6,西,23.7,95.7,0,0,0,19
102,2022-08-22T01:41:00,0.2,静穏,0.6,西,23.7,95.8,0,0,0,19
103,2022-08-22T01:42:00,0.2,静穏,0.6,西,23.7,95.9,0,0,0,19
104,2022-08-22T01:43:00,0.3,北西,0.8,北,23.6,95.9,0,0,0,19
105,2022-08-22T01:44:00,0.3,北西,0.8,北,23.6,96,0,0,0,19
106,2022-08-22T01:45:00,0.3,北西,0.8,北,23.6,96.1,0,0,0,19
107,2022-08-22T01:46:00,0.3,北北西,0.8,北,23.6,96.2,0,0,0,19
108,2022-08-22T01:47:00,0.3,北西,0.8,北,23.5,96.2,0,0,0,19
109,2022-08-22T01:48:00,0.4,北西,0.8,北,23.5,96.3,0,0,0,19
110,2022-08-22T01:49:00,0.4,北西,0.8,北,23.5,96.4,0,0,0,19
111,2022-08-22T01:50:00,0.5,北西,0.8,北,23.5,96.5,0,0,0,19
112,2022-08-22T01:51:00,0.5,北西,0.8,北,23.5,96.6,0,0,0,19
113,2022-08-22T01:52:00,0.5,北西,0.8,北,23.5,96.7,0,0,0,19
114,2022-08-22T01:53:00,0.4,北西,0.8,西北西,23.5,96.8,0,0,0,19
115,2022-08-22T01:54:00,0.4,北西,0.8,西北西,23.5,96.9,0,0,0,19
116,2022-08-22T01:55:00,0.5,北西,0.8,西北西,23.4,96.9,0,0,0,19
117,2022-08-22T01:56:00,0.5,北西,0.8,西北西,23.4,96.9,0,0,0,19
118,2022-08-22T01:57:00,0.5,北西,1,北北西,23.4,97,0,0,0,19
119,2022-08-22T01:58:00,0.6,北西,1.4,北西,23.4,97,0,0,0,19
120,2022-08-22T01:59:00,0.6,北北西,1.4,北西,23.4,97,0,0,0,19
121,2022-08-22T02:00:00,0.6,北北西,1.4,北西,23.4,97.1,0,0,0,19
122,2022-08-22T02:01:00,0.7,北北西,1.4,北西,23.4,97.2,0,0,0,19
123,2022-08-22T02:02:00,0.7,北北西,1.4,北西,23.4,97.3,0,0,0,19
124,2022-08-22T02:03:00,0.7,北北西,1.4,北西,23.4,97.3,0,0,0,19
125,2022-08-22T02:04:00,0.8,北北西,1.4,北西,23.4,97.4,0,0,0,19
126,2022-08-22T02:05:00,0.8,北北西,1.4,北西,23.4,97.4,0,0,0,19
127,2022-08-22T02:06:00,0.9,北北西,1.9,北北西,23.4,97.4,0,0,0,19
128,2022-08-22T02:07:00,1,北北西,1.9,北北西,23.4,97.5,0,0,0,19
129,2022-08-22T02:08:00,1,北北西,2,北北西,23.4,97.5,0,0,0,19
130,2022-08-22T02:09:00,1.1,北,2,北北西,23.4,97.5,0,0,0,19
131,2022-08-22T02:10:00,1.1,北,2,北北西,23.3,97.5,0,0,0,19
132,2022-08-22T02:11:00,1.2,北北西,2,北北西,23.3,97.5,0,0,0,19
133,2022-08-22T02:12:00,1.2,北,2,北北西,23.3,97.5,0,0,0,19
134,2022-08-22T02:13:00,1.3,北,2,北北西,23.4,97.6,0,0,0,19
135,2022-08-22T02:14:00,1.3,北,2,北北西,23.4,97.6,0,0,0,19
136,2022-08-22T02:15:00,1.3,北,2,北北西,23.4,97.6,0,0,0,19
137,2022-08-22T02:16:00,1.2,北,2,北北西,23.4,97.6,0,0,0,19
138,2022-08-22T02:17:00,1.2,北,2,北北西,23.4,97.5,0,0,0,19
139,2022-08-22T02:18:00,1.1,北,2,北北西,23.3,97.5,0,0,0,19
140,2022-08-22T02:19:00,0.9,北,1.9,北,23.4,97.6,0,0,0,19
141,2022-08-22T02:20:00,0.8,北,1.6,北北西,23.4,97.5,0,0,0,19
142,2022-08-22T02:21:00,0.7,北,1.5,北,23.4,97.5,0,0,0,19
143,2022-08-22T02:22:00,0.7,北北東,1.5,北,23.4,97.5,0,0,0,19
144,2022-08-22T02:23:00,0.6,北北東,1.4,北,23.4,97.5,0,0,0,19
145,2022-08-22T02:24:00,0.6,北北東,1.4,北,23.5,97.5,0,0,0,19
146,2022-08-22T02:25:00,0.6,北北東,1.2,北北西,23.5,97.4,0,0,0,19
147,2022-08-22T02:26:00,0.6,北北東,1.2,北北西,23.5,97.3,0,0,0,19
148,2022-08-22T02:27:00,0.6,北北東,1.2,北北西,23.5,97.2,0,0,0,19
149,2022-08-22T02:28:00,0.7,北北東,1.3,北,23.5,97.1,0,0,0,19
150,2022-08-22T02:29:00,0.7,北北東,1.3,北,23.5,97.1,0,0,0,19
151,2022-08-22T02:30:00,0.8,北,1.3,北,23.5,97,0,0,0,19
152,2022-08-22T02:31:00,0.8,北,1.3,北,23.5,97,0,0,0,19
153,2022-08-22T02:32:00,0.9,北,1.3,北,23.4,96.9,0,0,0,19
154,2022-08-22T02:33:00,0.9,北,1.3,北,23.4,96.9,0,0,0,19
155,2022-08-22T02:34:00,0.9,北北西,1.3,北,23.3,96.9,0,0,0,19
156,2022-08-22T02:35:00,1,北北西,1.4,北北西,23.3,97,0,0,0,19
157,2022-08-22T02:36:00,1,北北西,1.7,北西,23.3,97.1,0,0,0,19
158,2022-08-22T02:37:00,1,北北西,1.7,北西,23.3,97.1,0,0,0,19
159,2022-08-22T02:38:00,1,北北西,1.7,北西,23.3,97.2,0,0,0,19
160,2022-08-22T02:39:00,1.1,北北西,1.7,北西,23.4,97.3,0,0,0,19
161,2022-08-22T02:40:00,1,北北西,1.7,北西,23.4,97.5,0,0,0,19
162,2022-08-22T02:41:00,1,北北西,1.7,北西,23.4,97.4,0,0,0,19
163,2022-08-22T02:42:00,1,北北西,1.7,北西,23.3,97.4,0,0,0,19
164,2022-08-22T02:43:00,1,北北西,1.7,北西,23.4,97.4,0,0,0,19
165,2022-08-22T02:44:00,1,北,1.7,北西,23.4,97.5,0,0,0,19
166,2022-08-22T02:45:00,0.9,北,1.7,北西,23.3,97.4,0,0,0,19
167,2022-08-22T02:46:00,0.9,北,1.6,北,23.3,97.4,0,0,0,19
168,2022-08-22T02:47:00,0.9,北,1.6,北,23.3,97.4,0,0,0,19
169,2022-08-22T02:48:00,0.9,北,1.6,北,23.3,97.4,0,0,0,19
170,2022-08-22T02:49:00,0.9,北,1.4,北北西,23.3,97.5,0,0,0,19
171,2022-08-22T02:50:00,0.9,北,1.3,北北西,23.3,97.5,0,0,0,19
172,2022-08-22T02:51:00,0.9,北,1.3,北北西,23.3,97.5,0,0,0,19
173,2022-08-22T02:52:00,0.9,北北西,1.4,北北西,23.3,97.5,0,0,0,19
174,2022-08-22T02:53:00,0.9,北,1.4,北北西,23.3,97.5,0,0,0,19
175,2022-08-22T02:54:00,0.9,北,1.4,北北西,23.3,97.5,0,0,0,19
176,2022-08-22T02:55:00,0.9,北北西,1.4,北北西,23.3,97.5,0,0,0,19
177,2022-08-22T02:56:00,0.9,北北西,1.4,北北西,23.3,97.5,0,0,0,19
178,2022-08-22T02:57:00,0.9,北北西,1.4,北北西,23.2,97.5,0,0,0,19
179,2022-08-22T02:58:00,0.8,北北西,1.4,北北西,23.2,97.5,0,0,0,19
180,2022-08-22T02:59:00,0.8,北北西,1.4,北北西,23.2,97.5,0,0,0,19
181,2022-08-22T03:00:00,0.8,北北西,1.4,北北西,23.2,97.6,0,0,0,19
182,2022-08-22T03:01:00,0.8,北北西,1.4,北北西,23.3,97.6,0,0,0,19
183,2022-08-22T03:02:00,0.7,北北西,1.2,北北西,23.3,97.6,0,0,0,19
184,2022-08-22T03:03:00,0.7,北北西,1.2,北北西,23.3,97.6,0,0,0,19
185,2022-08-22T03:04:00,0.6,北北西,1.2,北北西,23.3,97.6,0,0,0,19
186,2022-08-22T03:05:00,0.6,北北西,1.2,北北西,23.3,97.6,0,0,0,19
187,2022-08-22T03:06:00,0.5,北北西,1.1,北北西,23.3,97.6,0,0,0,19
188,2022-08-22T03:07:00,0.5,北北西,1.1,北北西,23.3,97.6,0,0,0,19
189,2022-08-22T03:08:00,0.5,北北西,0.9,北,23.3,97.5,0,0,0,19
190,2022-08-22T03:09:00,0.5,北北西,0.9,北,23.3,97.5,0,0,0,19
191,2022-08-22T03:10:00,0.5,北北西,0.9,北,23.3,97.5,0,0,0,19
192,2022-08-22T03:11:00,0.5,北北西,0.9,北,23.3,97.6,0,0,0,19
193,2022-08-22T03:12:00,0.5,北,0.9,北,23.3,97.6,0,0,0,19
194,2022-08-22T03:13:00,0.5,北,0.9,北,23.4,97.6,0,0,0,19
195,2022-08-22T03:14:00,0.5,北,0.9,北,23.4,97.6,0,0,0,19
196,2022-08-22T03:15:00,0.5,北,0.9,北,23.4,97.6,0,0,0,19
197,2022-08-22T03:16:00,0.5,北北東,0.9,北,23.4,97.5,0,0,0,19
198,2022-08-22T03:17:00,0.4,北北東,0.9,北,23.4,97.4,0,0,0,19
199,2022-08-22T03:18:00,,"",,"",,,,,,
200,2022-08-22T03:19:00,0.3,北東,0.9,北,23.4,97.2,0,0,0,19
201,2022-08-22T03:20:00,0.3,北東,0.8,北北東,23.4,97.2,0,0,0,19
202,2022-08-22T03:21:00,0.2,静穏,0.7,北北東,23.4,97.1,0,0,0,19
203,2022-08-22T03:22:00,0.2,静穏,0.6,北北東,23.3,97,0,0,0,19
204,2022-08-22T03:23:00,0.2,静穏,0.6,北北東,23.2,96.9,0,0,0,19
205,2022-08-22T03:24:00,0.2,静穏,0.6,北北東,23.2,96.9,0,0,0,19
206,2022-08-22T03:25:00,0.2,静穏,0.5,北西,23.2,97,0,0,0,19
207,2022-08-22T03:26:00,0.3,北,0.5,北西,23.2,97.1,0,0,0,19
208,2022-08-22T03:27:00,0.3,北北西,0.6,北北西,23.2,97.1,0,0,0,19
209,2022-08-22T03:28:00,0.3,北北西,0.6,北北西,23.2,97.3,0,0,0,19
210,2022-08-22T03:29:00,0.3,北北西,0.6,北北西,23.2,97.3,0,0,0,19
211,2022-08-22T03:30:00,0.4,北北西,0.6,北北西,23.3,97.5,0,0,0,19
212,2022-08-22T03:31:00,0.3,北北西,0.6,北北西,23.3,97.5,0,0,0,19
213,2022-08-22T03:32:00,0.3,北北西,0.6,北北西,23.2,97.5,0,0,0,19
214,2022-08-22T03:33:00,0.3,北北西,0.6,北北西,23.2,97.4,0,0,0,19
215,2022-08-22T03:34:00,0.3,北,0.6,北北西,23.2,97.5,0,0,0,19
216,2022-08-22T03:35:00,0.3,北,0.6,北北西,23.2,97.5,0,0,0,19
217,2022-08-22T03:36:00,0.3,北,0.6,北北西,23.2,97.5,0,0,0,19
218,2022-08-22T03:37:00,0.2,静穏,0.5,北北西,23.3,97.6,0,0,0,19
219,2022-08-22T03:38:00,0.3,北北東,0.8,南東,23.2,97.5,0,0,0,19
220,2022-08-22T03:39:00,0.3,北北東,1.1,南東,23.2,97.5,0,0,0,19
221,2022-08-22T03:40:00,0.4,北東,1.1,南東,23.1,97.5,0,0,0,19
222,2022-08-22T03:41:00,0.4,東北東,1.1,南東,23.1,97.6,0,0,0,19
223,2022-08-22T03:42:00,0.5,東,1.1,南東,23.1,97.6,0,0,0,19
224,2022-08-22T03:43:00,0.6,東南東,1.2,東南東,23.1,97.6,0,0,0,19
225,2022-08-22T03:44:00,0.6,東南東,1.2,東南東,23.1,97.6,0,0,0,19
226,2022-08-22T03:45:00,0.7,東南東,1.2,東南東,23.1,97.6,0,0,0,19
227,2022-08-22T03:46:00,0.7,南東,1.2,東南東,23.1,97.7,0,0,0,19
228,2022-08-22T03:47:00,0.8,南東,1.2,東南東,23.1,97.7,0,0,0,19
229,2022-08-22T03:48:00,0.8,南東,1.2,東南東,23.1,97.7,0,0,0,19
230,2022-08-22T03:49:00,0.8,東南東,1.2,東南東,23,97.7,0,0,0,19
231,2022-08-22T03:50:00,0.7,東南東,1.2,東南東,23,97.7,0,0,0,19
232,2022-08-22T03:51:00,0.7,東南東,1.2,東南東,23,97.7,0,0,0,19
233,2022-08-22T03:52:00,0.7,東南東,1.2,東南東,23,97.7,0,0,0,19
234,2022-08-22T03:53:00,0.7,南東,1.2,東南東,23,97.8,0,0,0,19
235,2022-08-22T03:54:00,0.7,南東,1.1,東南東,23,97.8,0,0,0,19
236,2022-08-22T03:55:00,0.7,南東,1,東南東,23,97.8,0,0,0,19
237,2022-08-22T03:56:00,0.7,東南東,1,東南東,23,97.8,0,0,0,19
238,2022-08-22T03:57:00,0.6,東南東,1,東南東,23,97.8,0,0,0,19
239,2022-08-22T03:58:00,0.6,東南東,1,東南東,23,97.8,0,0,0,19
240,2022-08-22T03:59:00,,"",,"",,,,,,
241,2022-08-22T04:00:00,0.5,南東,1,東南東,23,97.9,0,0,0,19
242,2022-08-22T04:01:00,0.5,南東,1,東南東,23,97.9,0,0,0,19
243,2022-08-22T04:02:00,0.4,南東,1,東南東,23,97.9,0,0,0,19
244,2022-08-22T04:03:00,0.4,南東,1,東南東,23,97.9,0,0,0,19
245,2022-08-22T04:04:00,0.3,南東,1,東南東,23,97.9,0,0,0,19
246,2022-08-22T04:05:00,0.3,南東,0.8,東,23,97.9,0,0,0,19
247,2022-08-22T04:06:00,0.3,南東,0.7,東南東,23,97.9,0,0,0,19
248,2022-08-22T04:07:00,0.3,南南東,0.5,東南東,22.9,97.9,0,0,0,19
249,2022-08-22T04:08:00,0.2,静穏,0.5,東南東,23,97.9,0,0,0,19
250,2022-08-22T04:09:00,0.2,静穏,0.5,東南東,23,97.9,0,0,0,19
251,2022-08-22T04:10:00,0.2,静穏,0.5,東南東,23.1,98,0,0,0,19
252,2022-08-22T04:11:00,0.2,静穏,0.4,南南東,23.1,98,0,0,0,19
253,2022-08-22T04:12:00,0.2,静穏,0.4,南南東,23.1,97.9,0,0,0,19
254,2022-08-22T04:13:00,0.1,静穏,0.4,南南東,23.1,97.9,0,0,0,19
255,2022-08-22T04:14:00,0.1,静穏,0.4,南南東,23.1,97.9,0,0,0,19
256,2022-08-22T04:15:00,0.1,静穏,0.4,南南東,23.1,97.9,0,0,0,19
257,2022-08-22T04:16:00,0.1,静穏,0.4,南南東,23.1,97.9,0,0,0,19
258,2022-08-22T04:17:00,0.1,静穏,0.6,北北西,23.1,97.9,0,0,0,19
259,2022-08-22T04:18:00,0.1,静穏,0.8,北北東,23.1,97.9,0,0,0,19
260,2022-08-22T04:19:00,0.1,静穏,0.8,北北東,23.1,97.9,0,0,0,19
261,2022-08-22T04:20:00,0.2,静穏,0.8,北北東,23.1,97.8,0,0,0,19
262,2022-08-22T04:21:00,0.2,静穏,0.8,北北東,23.1,97.9,0,0,0,19
263,2022-08-22T04:22:00,0.2,静穏,0.8,北北東,23.1,97.9,0,0,0,19
264,2022-08-22T04:23:00,0.2,静穏,0.8,北北東,23.1,97.9,0,0,0,19
265,2022-08-22T04:24:00,0.2,静穏,0.8,北北東,23.1,97.8,0,0,0,19
266,2022-08-22T04:25:00,0.2,静穏,0.8,北北東,23.1,97.8,0,0,0,19
267,2022-08-22T04:26:00,0.3,北北東,0.8,北北東,23.1,97.9,0,0,0,19
268,2022-08-22T04:27:00,0.3,北北東,0.8,北北東,23.1,97.9,0,0,0,19
269,2022-08-22T04:28:00,0.3,北東,0.8,北,23.1,97.8,0,0,0,19
270,2022-08-22T04:29:00,0.3,北東,0.8,北,23.1,97.8,0,0,0,19
271,2022-08-22T04:30:00,0.2,静穏,0.7,北北東,23.1,97.8,0,0,0,19
272,2022-08-22T04:31:00,0.2,静穏,0.7,北北東,23.2,97.8,0,0,0,19
273,2022-08-22T04:32:00,0.2,静穏,0.7,北北東,23.2,97.8,0,0,0,19
274,2022-08-22T04:33:00,0.2,静穏,0.7,北北東,23.2,97.8,0,0,0,19
275,2022-08-22T04:34:00,0.3,東北東,0.7,北北東,23.2,97.8,0,0,0,19
276,2022-08-22T04:35:00,0.3,東北東,0.9,北北東,23.2,97.8,0,0,0,19
277,2022-08-22T04:36:00,0.4,東北東,1,北北東,23.2,97.8,0,0,0,19
278,2022-08-22T04:37:00,0.4,北東,1,北北東,23.2,97.8,0,0,0,19
279,2022-08-22T04:38:00,0.4,北東,1,北北東,23.2,97.7,0,0,0,19
280,2022-08-22T04:39:00,0.4,北東,1,北北東,23.2,97.6,0,0,0,19
281,2022-08-22T04:40:00,0.5,北東,1,北北東,23.2,97.6,0,0,0,19
282,2022-08-22T04:41:00,0.5,北北東,1,北北東,23.2,97.7,0,0,0,19
283,2022-08-22T04:42:00,0.6,北北東,1,北北東,23.2,97.7,0,0,0,19
284,2022-08-22T04:43:00,0.6,北北東,1,北北東,23.2,97.6,0,0,0,19
285,2022-08-22T04:44:00,0.6,北,1,北北東,23.1,97.6,0,0,0,19
286,2022-08-22T04:45:00,0.6,北,1,北北東,23.1,97.6,0,0,0,19
287,2022-08-22T04:46:00,0.6,北,1,北北東,23.1,97.6,0,0,0,19
288,2022-08-22T04:47:00,0.5,北,1,北北東,23.1,97.7,0,0,0,19
289,2022-08-22T04:48:00,0.4,北,0.9,北,23.1,97.7,0,0,0,19
290,2022-08-22T04:49:00,0.4,北北西,0.9,北,23.1,97.7,0,0,0,19
291,2022-08-22T04:50:00,0.3,北北西,0.9,北,23.1,97.7,0,0,0,19
292,2022-08-22T04:51:00,0.4,北西,0.9,北,23.1,97.8,0,0,0,19
293,2022-08-22T04:52:00,0.4,北西,1.2,北西,23,97.7,0,0,0,19
294,2022-08-22T04:53:00,0.4,北西,1.4,北北西,23,97.7,0,0,0,19
295,2022-08-22T04:54:00,0.5,北西,1.4,北北西,23,97.8,0,0,0,19
296,2022-08-22T04:55:00,0.5,北西,1.4,北北西,23,97.8,0,0,0,19
297,2022-08-22T04:56:00,0.6,北西,1.4,北北西,23,97.8,0,0,0,19
298,2022-08-22T04:57:00,0.6,北西,1.4,北北西,23,97.8,0,0,0,19
299,2022-08-22T04:58:00,0.7,北西,1.4,北北西,23,97.8,0,0,0,19
300,2022-08-22T04:59:00,0.7,北北西,1.4,北北西,23,97.9,0,0,0,19
301,2022-08-22T05:00:00,0.8,北北西,1.4,北北西,23,97.8,0,0,0,19
302,2022-08-22T05:01:00,0.8,北,1.4,北北西,23,97.8,0,0,0,19
303,2022-08-22T05:02:00,0.8,北,1.4,北北西,23,97.9,0,0,0,19
304,2022-08-22T05:03:00,0.7,北,1.2,北北西,23,97.9,0,0,0,19
305,2022-08-22T05:04:00,0.6,北,1.2,北北西,23,97.9,0,0,0,19
306,2022-08-22T05:05:00,0.6,北,1,北北西,23.1,97.9,0,0,0,19
307,2022-08-22T05:06:00,0.6,北北東,1,北北西,23.1,97.9,0,0,0,19
308,2022-08-22T05:07:00,0.6,北北東,1,北北西,23.1,97.9,0,0,0,19
309,2022-08-22T05:08:00,0.6,北北東,1,北北西,23.1,97.9,0,0,0,19
310,2022-08-22T05:09:00,0.6,北北東,1,北北西,23.1,97.8,0,0,0,19
311,2022-08-22T05:10:00,0.6,北東,1,北北西,23.1,97.8,0,0,0,19
312,2022-08-22T05:11:00,0.6,北東,1,東北東,23.1,97.8,0,0,0,19
313,2022-08-22T05:12:00,0.5,北東,1,東北東,23.2,97.8,0,0,0,19
314,2022-08-22T05:13:00,0.5,北東,1,東北東,23.1,97.8,0,0,0,19
315,2022-08-22T05:14:00,0.4,東北東,1,東北東,23.1,97.7,0,0,0,19
316,2022-08-22T05:15:00,0.4,東北東,1,東北東,23.1,97.7,0,0,0,19
317,2022-08-22T05:16:00,0.4,東,1,東北東,23.1,97.7,0,0,0,19
318,2022-08-22T05:17:00,0.4,東南東,1,東北東,23.1,97.7,0,0,0,19
319,2022-08-22T05:18:00,0.4,東南東,0.9,東北東,23.1,97.7,0,0,0,19
320,2022-08-22T05:19:00,0.3,南東,0.7,南南東,23.1,97.7,0,0,0,19
321,2022-08-22T05:20:00,0.3,南東,0.7,南南東,23.1,97.7,0,0,0,19
322,2022-08-22T05:21:00,0.4,南南東,0.7,南南東,23.1,97.8,0,0,0,19
323,2022-08-22T05:22:00,0.4,南南東,0.7,南南東,23.1,97.8,0,0,0,19
324,2022-08-22T05:23:00,0.4,南南東,0.7,南南東,23.1,97.8,0,0,0,19
325,2022-08-22T05:24:00,0.4,南南東,0.7,南南東,23,97.8,0,0,0,19
326,2022-08-22T05:25:00,0.4,南南東,0.7,南南東,23,97.8,0,0,0,19
327,2022-08-22T05:26:00,0.4,南南東,0.7,南南東,23,97.8,0,0,0,19
328,2022-08-22T05:27:00,0.4,南南東,0.7,南南東,23,97.8,0,0,0,19
329,2022-08-22T05:28:00,0.4,南,0.7,南南東,23,97.8,0,0,0,19
330,2022-08-22T05:29:00,0.3,南,0.7,南東,23,97.8,0,0,0,19
331,2022-08-22T05:30:00,0.3,南,0.7,南東,23,97.8,0,0,0,19
332,2022-08-22T05:31:00,0.3,南,0.5,南南西,23,97.9,0,0,0,19
333,2022-08-22T05:32:00,0.3,南,0.5,南南西,23,97.9,0,0,0,19
334,2022-08-22T05:33:00,0.3,南,0.5,南南西,23,97.9,0,0,0,19
335,2022-08-22T05:34:00,0.3,南,0.5,南南西,23,97.9,0,0,0,19
336,2022-08-22T05:35:00,0.3,南南西,0.5,南南西,23,98,0,0,0,19
337,2022-08-22T05:36:00,0.2,静穏,0.5,南南西,23.1,98,0,0,0,19
338,2022-08-22T05:37:00,0.2,静穏,0.5,南南西,23.1,98,0,0,0,19
339,2022-08-22T05:38:00,0.2,静穏,0.7,北東,23.1,98,0,0,0,19
340,2022-08-22T05:39:00,0.2,静穏,0.7,北東,23.1,98,0,0,0,19
341,2022-08-22T05:40:00,0.2,静穏,0.7,北東,23.2,98,0,0,0,19
342,2022-08-22T05:41:00,0.2,静穏,0.7,北東,23.2,98,0,0,0,19
343,2022-08-22T05:42:00,0.2,静穏,0.7,北東,23.2,98,0,0,0,19
344,2022-08-22T05:43:00,0.2,静穏,0.7,北東,23.2,98,0,0,0,19
345,2022-08-22T05:44:00,0.2,静穏,0.7,北東,23.2,98,0,0,0,19
346,2022-08-22T05:45:00,0.2,静穏,0.7,北東,23.2,97.9,0,0,0,19
347,2022-08-22T05:46:00,0.2,静穏,0.7,北東,23.2,97.9,0,0,0,19
348,2022-08-22T05:47:00,0.2,静穏,0.7,北東,23.2,97.9,0,0,0,19
349,2022-08-22T05:48:00,0.1,静穏,0.7,北東,23.2,97.9,0,0,0,19
350,2022-08-22T05:49:00,0.1,静穏,0.5,北東,23.2,97.9,0,0,0,19
351,2022-08-22T05:50:00,0.1,静穏,0.6,北東,23.2,97.9,0,0,0,19
352,2022-08-22T05:51:00,0.1,静穏,0.9,北北西,23.2,97.9,0,0,0,19
353,2022-08-22T05:52:00,0.2,静穏,1,北北西,23.2,97.9,0,0,0,19
354,2022-08-22T05:53:00,0.3,北東,1.4,北北西,23.2,97.9,0,0,0,19
355,2022-08-22T05:54:00,0.4,北北東,1.7,北西,23.2,97.8,0,0,0,19
356,2022-08-22T05:55:00,0.6,北北東,1.8,北北西,23.1,97.8,0,0,0,19
357,2022-08-22T05:56:00,0.7,北,1.8,北北西,23.1,97.8,0,0,0,19
358,2022-08-22T05:57:00,0.7,北,1.8,北北西,23.1,97.8,0,0,0,19
359,2022-08-22T05:58:00,0.8,北,1.8,北北西,23.1,97.8,0,0,0,19
360,2022-08-22T05:59:00,0.9,北北西,1.8,北北西,23.1,97.8,0,0,0,19
361,2022-08-22T06:00:00,0.9,北北西,1.8,北北西,23.2,97.8,0,0,0,19
362,2022-08-22T06:01:00,0.9,北北西,1.8,北北西,23.2,97.9,0,0,0,19
363,2022-08-22T06:02:00,0.9,北北西,1.8,北北西,23.2,97.8,0,0,0,19
364,2022-08-22T06:03:00,0.9,北北西,1.8,北北西,23.2,97.8,0,0,0,19
365,2022-08-22T06:04:00,0.9,北北西,1.8,北北西,23.2,97.9,0,0,0,19
366,2022-08-22T06:05:00,0.8,北北西,1.6,北北西,23.2,97.9,0,0,0,19
367,2022-08-22T06:06:00,0.8,北北西,1.5,北,23.2,97.9,0,0,0,19
368,2022-08-22T06:07:00,0.8,北北西,1.5,北,23.2,97.8,0,0,0,19
369,2022-08-22T06:08:00,0.8,北北西,1.5,北,23.2,97.8,0,0,0,19
370,2022-08-22T06:09:00,0.8,北北西,1.5,北,23.2,97.8,0,0,0,19
371,2022-08-22T06:10:00,0.8,北北西,1.5,北,23.2,97.8,0,0,0,19
372,2022-08-22T06:11:00,0.7,北西,1.5,北,23.2,97.8,0,0,0,19
373,2022-08-22T06:12:00,0.8,北西,1.5,北,23.2,97.8,0,0,0,19
374,2022-08-22T06:13:00,0.8,北西,1.5,北,23.2,97.8,0,0,0,19
375,2022-08-22T06:14:00,0.7,西北西,1.5,北,23.2,97.8,0,0,0,19
376,2022-08-22T06:15:00,0.7,西北西,1.3,北北西,23.3,97.9,0,0,0,19
377,2022-08-22T06:16:00,0.7,西北西,1.5,西,23.3,97.8,0,0,0,19
378,2022-08-22T06:17:00,0.8,西,1.5,西,23.3,97.8,0,0,0,19
379,2022-08-22T06:18:00,0.8,西,1.5,西,23.3,97.8,0,0,0,19
380,2022-08-22T06:19:00,0.8,西,1.5,西,23.4,97.8,0,0,0,19
381,2022-08-22T06:20:00,0.9,西,1.5,西,23.3,97.8,0,0,0,19
382,2022-08-22T06:21:00,0.9,西,1.5,西,23.3,97.8,0,0,0,19
383,2022-08-22T06:22:00,0.9,西,1.5,西,23.4,97.8,0,0,0,19
384,2022-08-22T06:23:00,0.9,西,1.7,西北西,23.3,97.7,0,0,0,19
385,2022-08-22T06:24:00,1,西,1.7,西北西,23.3,97.7,0,0,0,19
386,2022-08-22T06:25:00,1,西,1.7,西北西,23.3,97.7,0,0,0,19
387,2022-08-22T06:26:00,1,西,2,西南西,23.4,97.7,0,0,0,19
388,2022-08-22T06:27:00,1,西,2.3,西南西,23.4,97.7,0,0,0,19
389,2022-08-22T06:28:00,1,西,2.3,西南西,23.5,97.8,0,0,0,19
390,2022-08-22T06:29:00,1.1,西,2.3,西南西,23.5,97.8,0,0,0,19
391,2022-08-22T06:30:00,1,西,2.3,西南西,23.6,97.7,0,0,0,19
392,2022-08-22T06:31:00,1,西,2.3,西南西,23.5,97.7,0,0,0,19
393,2022-08-22T06:32:00,0.9,西,2.3,西南西,23.7,97.7,0,0,0,19
394,2022-08-22T06:33:00,1,西北西,2.3,西南西,23.7,97.7,0,0,0,19
395,2022-08-22T06:34:00,1,西北西,2.3,西南西,23.6,97.5,0,0,0,19
396,2022-08-22T06:35:00,1.1,北北西,2.3,西南西,23.6,97.2,0,0,0,19
397,2022-08-22T06:36:00,1.1,北北東,2.3,西南西,23.6,97.2,0,0,0,19
398,2022-08-22T06:37:00,1,北北東,2.3,北東,23.5,97.2,0,0,0,19
399,2022-08-22T06:38:00,1,北東,2.3,北東,23.6,97.3,0,0,0,19
400,2022-08-22T06:39:00,1,北東,2.3,北東,23.7,97.3,0,0,0,19
401,2022-08-22T06:40:00,1.1,北東,2.3,北東,23.6,97.2,0,0,0,19
402,2022-08-22T06:41:00,1.1,北東,2.3,北東,23.6,97,0,0,0,19
403,2022-08-22T06:42:00,1.1,北東,2.3,北東,23.6,97,0,0,0,19
404,2022-08-22T06:43:00,1.1,北東,2,北東,23.6,96.9,0,0,0,19
405,2022-08-22T06:44:00,1,北東,1.8,東北東,23.6,96.7,0,0,0,19
406,2022-08-22T06:45:00,0.9,北東,1.6,東北東,23.6,96.6,0,0,0,19
407,2022-08-22T06:46:00,0.8,北東,1.6,東北東,23.7,96.6,0,0,0,19
408,2022-08-22T06:47:00,0.7,北東,1.6,東北東,23.7,96.6,0,0,0,19
409,2022-08-22T06:48:00,0.7,東北東,1.6,東北東,23.7,96.6,0,0,0,19
410,2022-08-22T06:49:00,0.6,東北東,1.6,東北東,23.8,96.6,0,0,0,19
411,2022-08-22T06:50:00,0.6,東北東,1.3,北東,23.8,96.5,0,0,0,19
412,2022-08-22T06:51:00,0.5,東,1.3,北東,23.8,96.5,0,0,0,19
413,2022-08-22T06:52:00,0.5,東,1.2,東北東,23.8,96.5,0,0,0,19
414,2022-08-22T06:53:00,0.5,東南東,1.2,東北東,23.8,96.4,0,0,0,19
415,2022-08-22T06:54:00,0.4,東南東,1.1,東,23.8,96.3,0,0,0,19
416,2022-08-22T06:55:00,0.4,南東,1.1,東,23.7,96.3,0,0,0,19
417,2022-08-22T06:56:00,0.5,南東,1.1,東,23.7,96.3,0,0,0,19
418,2022-08-22T06:57:00,0.5,南東,1.1,東,23.7,96.4,0,0,0,19
419,2022-08-22T06:58:00,0.5,東南東,1.1,東,23.7,96.4,0,0,0,19
420,2022-08-22T06:59:00,0.5,東南東,1.1,東,23.7,96.4,0,0,0,19
421,2022-08-22T07:00:00,0.5,南東,0.9,東南東,23.7,96.5,0,0,0,19
422,2022-08-22T07:01:00,0.6,南東,0.9,東南東,23.7,96.4,0,0,0,19
423,2022-08-22T07:02:00,0.6,南東,0.9,東南東,23.7,96.4,0,0,0,19